Weather History for Crane Lake, MN

Change the Weather History Date:

Saturday, October 12, 2013

  Actual Average Record
Temperature  
Mean Temperature 52 °F -  
Max Temperature 60 °F 51 °F 71 °F (2000)
Min Temperature 44 °F 34 °F 17 °F (2012)
Degree Days  
Heating Degree Days 13    
Growing Degree Days 2 (Base 50)    
Moisture  
Dew Point 47 °F    
Average Humidity 88    
Maximum Humidity 100    
Minimum Humidity 76    
Precipitation  
Precipitation 0.04 in - - ()
Sea Level Pressure  
Sea Level Pressure 29.74 in    
Wind  
Wind Speed 7 mph (SSW)    
Max Wind Speed 13 mph    
Max Gust Speed 21 mph    
Visibility 9 miles    
Events Rain    
Averages and records for this station are not official NWS values.
T = Trace of Precipitation, MM = Missing Value Source: NWS Daily Summary

Daily Weather History Graph

Daily Weather History Graph

Search for Another Location

Airport:

Trip Planner

Search our weather history database for the weather conditions in past years. The results will help you decide how hot, cold, wet, or windy it might be!

Date:

Astronomy

Oct. 12, 2013 Rise Set
Actual Time 7:25 AM CDT 6:26 PM CDT
Civil Twilight 6:54 AM CDT 6:57 PM CDT
Nautical Twilight 6:18 AM CDT 7:33 PM CDT
Astronomical Twilight 5:41 AM CDT 8:09 PM CDT
Moon 3:02 PM CDT (10/12) 12:00 AM CDT (10/12)
Length of Visible Light 12h 03m
Length of Day
11h 00m
First Quarter, 59% of the Moon is Illuminated
Oct 12
First Quarter
Oct 18
Full
Oct 26
Last Quarter
Nov 3
New
Nov 9
First Quarter

Hourly Weather History & Observations

Time (CDT) Temp. Windchill Dew Point Humidity Pressure Visibility Wind Dir Wind Speed Gust Speed Precip Events Conditions
12:13 AM 60.8 °F - 53.6 °F 77% 29.59 in 10.0 mi SE 6.9 mph - N/A   Clear
12:32 AM 60.8 °F - 53.6 °F 77% 29.58 in 10.0 mi SE 4.6 mph - N/A Rain Light Rain
12:52 AM 60.8 °F - 55.4 °F 82% 29.59 in 7.0 mi SE 4.6 mph - N/A Rain Light Rain
1:12 AM 57.2 °F - 55.4 °F 94% 29.60 in 10.0 mi SSE 6.9 mph 18.4 mph 0.02 in Rain Light Rain
1:33 AM 57.2 °F - 55.4 °F 94% 29.58 in 10.0 mi SSE 4.6 mph - 0.02 in Rain Rain
1:53 AM 55.4 °F - 55.4 °F 100% 29.58 in 10.0 mi SSE 5.8 mph - 0.02 in   Overcast
2:13 AM 55.4 °F - 53.6 °F 94% 29.58 in 10.0 mi Calm Calm - N/A   Mostly Cloudy
2:33 AM 55.4 °F - 53.6 °F 94% 29.58 in 10.0 mi SE 3.5 mph - N/A   Mostly Cloudy
2:53 AM 55.4 °F - 55.4 °F 100% 29.58 in 10.0 mi SSE 6.9 mph - N/A   Overcast
3:13 AM 55.4 °F - 55.4 °F 100% 29.57 in 10.0 mi SE 3.5 mph - N/A   Overcast
3:32 AM 55.4 °F - 55.4 °F 100% 29.57 in 10.0 mi SSE 3.5 mph - N/A   Mostly Cloudy
3:52 AM 57.2 °F - 55.4 °F 94% 29.57 in 10.0 mi SSE 5.8 mph - N/A   Overcast
4:12 AM 57.2 °F - 55.4 °F 94% 29.57 in 10.0 mi SSE 4.6 mph - N/A   Overcast
4:32 AM 57.2 °F - 55.4 °F 94% 29.58 in 10.0 mi South 9.2 mph - N/A   Overcast
4:53 AM 55.4 °F - 53.6 °F 94% 29.59 in 10.0 mi South 12.7 mph 20.7 mph N/A   Overcast
5:12 AM 55.4 °F - 51.8 °F 88% 29.60 in 10.0 mi South 9.2 mph 18.4 mph N/A   Mostly Cloudy
5:32 AM 53.6 °F - 51.8 °F 94% 29.60 in 10.0 mi SSE 11.5 mph 19.6 mph N/A   Mostly Cloudy
5:53 AM 53.6 °F - 50.0 °F 88% 29.61 in 10.0 mi South 10.4 mph 17.3 mph N/A   Overcast
6:13 AM 51.8 °F - 48.2 °F 88% 29.63 in 10.0 mi South 8.1 mph 19.6 mph N/A   Overcast
6:32 AM 51.8 °F - 46.4 °F 82% 29.64 in 10.0 mi SSW 12.7 mph 20.7 mph N/A   Overcast
6:52 AM 51.8 °F - 46.4 °F 82% 29.65 in 10.0 mi South 10.4 mph 19.6 mph N/A   Overcast
7:12 AM 50.0 °F - 44.6 °F 82% 29.65 in 10.0 mi South 8.1 mph 17.3 mph N/A   Overcast
7:32 AM 50.0 °F - 44.6 °F 82% 29.65 in 10.0 mi South 9.2 mph - N/A   Overcast
7:52 AM 50.0 °F - 44.6 °F 82% 29.66 in 10.0 mi South 8.1 mph - N/A   Overcast
8:12 AM 50.0 °F - 44.6 °F 82% 29.67 in 10.0 mi South 6.9 mph 19.6 mph N/A   Overcast
8:32 AM 50.0 °F - 44.6 °F 82% 29.68 in 10.0 mi South 9.2 mph - N/A   Overcast
8:52 AM 50.0 °F - 44.6 °F 82% 29.68 in 10.0 mi South 5.8 mph 17.3 mph N/A   Overcast
9:12 AM 50.0 °F - 44.6 °F 82% 29.69 in 10.0 mi South 5.8 mph - N/A   Overcast
9:33 AM 50.0 °F - 44.6 °F 82% 29.69 in 10.0 mi South 9.2 mph - N/A   Overcast
9:53 AM 50.0 °F - 44.6 °F 82% 29.69 in 10.0 mi South 8.1 mph - N/A   Overcast
10:12 AM 50.0 °F - 44.6 °F 82% 29.69 in 10.0 mi South 8.1 mph 17.3 mph N/A   Overcast
10:32 AM 50.0 °F - 44.6 °F 82% 29.69 in 10.0 mi SSE 9.2 mph - N/A   Overcast
10:52 AM 51.8 °F - 44.6 °F 76% 29.69 in 10.0 mi South 10.4 mph 17.3 mph N/A   Overcast
11:13 AM 51.8 °F - 44.6 °F 76% 29.69 in 10.0 mi South 10.4 mph 20.7 mph N/A   Overcast
11:32 AM 51.8 °F - 44.6 °F 76% 29.70 in 10.0 mi South 9.2 mph 16.1 mph N/A   Overcast
11:52 AM 51.8 °F - 44.6 °F 76% 29.71 in 10.0 mi South 6.9 mph - N/A   Overcast
12:13 PM 51.8 °F - 44.6 °F 76% 29.71 in 10.0 mi South 12.7 mph 18.4 mph N/A   Overcast
12:32 PM 51.8 °F - 44.6 °F 76% 29.72 in 10.0 mi South 10.4 mph 18.4 mph N/A   Overcast
12:52 PM 51.8 °F - 44.6 °F 76% 29.72 in 10.0 mi South 8.1 mph - N/A   Overcast
1:12 PM 51.8 °F - 44.6 °F 76% 29.73 in 10.0 mi SSW 12.7 mph 19.6 mph N/A   Overcast
1:33 PM 51.8 °F - 44.6 °F 76% 29.73 in 10.0 mi South 10.4 mph 17.3 mph N/A   Overcast
1:52 PM 51.8 °F - 44.6 °F 76% 29.74 in 10.0 mi SSW 8.1 mph 19.6 mph N/A   Overcast
2:12 PM 51.8 °F - 44.6 °F 76% 29.74 in 10.0 mi South 9.2 mph 17.3 mph N/A   Overcast
2:32 PM 51.8 °F - 44.6 °F 76% 29.75 in 10.0 mi South 8.1 mph 18.4 mph N/A   Overcast
2:52 PM 50.0 °F - 44.6 °F 82% 29.76 in 10.0 mi South 5.8 mph 18.4 mph N/A   Overcast
3:13 PM 51.8 °F - 46.4 °F 82% 29.76 in 10.0 mi SSW 5.8 mph - N/A   Overcast
3:32 PM 51.8 °F - 46.4 °F 82% 29.77 in 10.0 mi SSW 10.4 mph 16.1 mph N/A   Overcast
3:52 PM 51.8 °F - 46.4 °F 82% 29.77 in 10.0 mi South 9.2 mph - N/A   Overcast
4:12 PM 50.0 °F - 46.4 °F 87% 29.78 in 10.0 mi South 6.9 mph - N/A   Overcast
4:32 PM 48.2 °F - 46.4 °F 93% 29.79 in 5.0 mi South 5.8 mph - N/A   Light Drizzle
4:52 PM 48.2 °F - 46.4 °F 93% 29.80 in 5.0 mi SW 5.8 mph - N/A   Drizzle
5:12 PM 48.2 °F - 46.4 °F 93% 29.81 in 3.0 mi SW 3.5 mph - N/A Rain Heavy Rain
5:32 PM 48.2 °F - 46.4 °F 93% 29.82 in 10.0 mi SW 4.6 mph - N/A   Overcast
5:52 PM 48.2 °F - 46.4 °F 93% 29.83 in 3.0 mi WSW 4.6 mph - N/A Rain Rain
6:13 PM 46.4 °F 44.3 °F 46.4 °F 100% 29.84 in 5.0 mi West 4.6 mph - 0.01 in   Light Drizzle
6:32 PM 46.4 °F 45.2 °F 44.6 °F 93% 29.85 in 3.0 mi SW 3.5 mph - 0.01 in   Drizzle
6:52 PM 46.4 °F 44.3 °F 44.6 °F 93% 29.86 in 5.0 mi West 4.6 mph - 0.01 in   Drizzle
7:12 PM 46.4 °F 43.5 °F 44.6 °F 93% 29.88 in 7.0 mi West 5.8 mph - N/A Rain Light Rain
7:32 PM 46.4 °F 42.4 °F 44.6 °F 93% 29.89 in 5.0 mi West 8.1 mph - N/A   Overcast
7:52 PM 46.4 °F - 44.6 °F 93% 29.90 in 2.5 mi Calm Calm - N/A   Drizzle
8:12 PM 44.6 °F 41.4 °F 44.6 °F 100% 29.91 in 10.0 mi WSW 5.8 mph - 0.01 in   Drizzle
8:32 PM 44.6 °F 42.2 °F 44.6 °F 100% 29.93 in 7.0 mi West 4.6 mph - 0.01 in   Drizzle
8:52 PM 44.6 °F 41.4 °F 44.6 °F 100% 29.94 in 10.0 mi West 5.8 mph 16.1 mph 0.01 in   Light Drizzle
9:13 PM 44.6 °F 40.7 °F 42.8 °F 93% 29.95 in 4.0 mi WSW 6.9 mph - N/A   Drizzle
9:33 PM 44.6 °F 43.1 °F 42.8 °F 93% 29.97 in 3.0 mi WNW 3.5 mph - N/A   Drizzle
9:52 PM 44.6 °F - 42.8 °F 93% 29.98 in 3.0 mi Calm Calm - N/A   Drizzle
10:12 PM 44.6 °F 43.1 °F 42.8 °F 93% 29.99 in 10.0 mi West 3.5 mph - N/A   Drizzle
10:32 PM 44.6 °F 42.2 °F 42.8 °F 93% 30.00 in 10.0 mi West 4.6 mph - N/A   Overcast
10:52 PM 44.6 °F 41.4 °F 42.8 °F 93% 30.01 in 10.0 mi West 5.8 mph - N/A   Overcast
11:12 PM 44.6 °F 41.4 °F 42.8 °F 93% 30.02 in 10.0 mi West 5.8 mph - N/A   Overcast
11:32 PM 44.6 °F 41.4 °F 42.8 °F 93% 30.04 in 10.0 mi West 5.8 mph - N/A   Overcast
11:53 PM 44.6 °F 42.2 °F 42.8 °F 93% 30.04 in 10.0 mi West 4.6 mph - N/A   Overcast